STARLINK-31186, 59030

Orbit data source: Space-Track

STARLINK-31186, 59030 is a payload satellite owned by SpaceX/Seattle (US) in LEO that was launched on Sun, 25 Feb 2024 UTC via an FALCON 9 launch vehicle from the Air Force Eastern Test Range (AFETR). Payload-class satellites include a variety of spacecraft equipped with specific instruments for various scientific and technological missions. These include communications satellites like Starlink; space stations such as the ISS; scientific satellites like the Hubble; Earth observation satellites from companies like Planet Labs, Umbra, and HawkEye 360; GPS; miniature CubeSats for education and research; and military/defense satellites.

Loading next visibility...
Identifier
59030, 2024-038H
Orbit
LEO
Country
Flag of USUS
Related business
Manufacturer
SpaceX/Seattle
Mission
Operational Commercial Communications
Bus & Motor
STARLINK V2M, Unknown motor
Mass
730 kg wet, ~700 kg dry
Launch date (UTC)
2024-02-25 (2 years ago)
Launch vehicle
FALCON 9
Launch site
Air Force Eastern Test Range (AFETR)
Object type
Payload
Rocket body
Debris
Shape & HBR
Box + 2 Pan, 17.7 m
Radar Cross Section
33.884 m², Large (>1 m²)

Expand to show TLE details & history
Last TLE update: 2 days ago

TLE from 2 days ago
0 STARLINK-31186
1 59030U 24038H   26171.07192227  .00000567  00000-0  30137-4 0  9997
2 59030  43.0031 169.0368 0001565 275.0668  85.0005 15.27578987130410
Epoch: 2026-06-20T01:43Z
TLE epoch observation values (Epoch: 2026-06-20T01:43:34.084Z)
Latitude
-0°
Longitude
-125.14702°
Altitude
482.734 km
Speed
7.626 km/s
True Right ascension
11h 16m 08s
True Declination
0° 00' 00"
Sunlit
Object was in daylight at epoch
Visualization orbit readout
Latitude
Unknown
Longitude
Unknown
Altitude
Unknown
Speed
Unknown
Apparent Right ascension
Unknown
Apparent Declination
Unknown
Sunlit
N/A
Visualization observer readout
Local Sidereal Time
21:52:39
Azimuth
Unknown
Elevation
Unknown
Doppler factor
Unknown
Orbital elements
Apogee altitude
486.071 km
Perigee altitude
483.923 km
Semi-major axis
6,863.134 km
Eccentricity
0.00016
Inclination
43.0031°
RAAN
169.0368°
Arg. of periapsis
275.0668°
True anomaly
85.01837°
Mean anomaly
85.0005°
Eccentric anomaly
85.00943°
Mean motion
3.81733 °/min
Orbital period
94.31 mins
BSTAR
0.000030137
Loading maneuver chart data...
Computing Atmospheric mass density...
Loading historical data...
Loading historical data...
Loading historical data...
Loading historical data...
Loading historical data...
Loading historical data...
Loading historical data...

Documentation

Showing up to 5 results
|